This demonstration page uses our WeatherBlox Daily Observations layout. Learn more.

Left ArrowRight Arrow

Hourly Observations for March 31, 2015

Temp ( °F °C ) Dew Point ( °F °C ) Humidity (%) Winds ( mph kmh ) Pressure ( in mb ) Visibility ( mi km ) Precip ( " mm )
12:53 am 00:53 Clear 46 7.8 33 0.6 61 61 S 5 7 29.83 1010 10 16 N/A
1:53 am 01:53 Clear 42 5.6 33 0.6 71 71 WNW 5 7 29.82 1010 10 16 N/A
2:53 am 02:53 Clear 44 6.7 33 0.6 65 65 N N/A 29.80 1009 10 16 N/A
3:53 am 03:53 Clear 38 3.3 32 undefined 79 79 SE 5 7 29.78 1009 10 16 N/A
4:53 am 04:53 Clear 40 4.4 32 undefined 73 73 S 3 6 29.75 1008 10 16 N/A
5:53 am 05:53 Clear 39 3.9 33 0.6 79 79 N N/A 29.74 1007 10 16 N/A
6:53 am 06:53 Clear 37 2.8 34 1.1 89 89 N N/A 29.73 1007 10 16 N/A
7:53 am 07:53 Sunny 39 3.9 35 1.7 86 86 ESE 6 9 29.73 1007 10 16 N/A
8:53 am 08:53 Sunny 43 6.1 36 2.2 76 76 E 5 7 29.73 1007 10 16 N/A
9:53 am 09:53 Sunny 51 10.6 35 1.7 54 54 E 3 6 29.69 1005 10 16 N/A
10:53 am 10:53 Sunny 57 13.9 36 2.2 45 45 E 5 7 29.67 1005 10 16 N/A
11:53 am 11:53 Sunny 65 18.3 36 2.2 34 34 E 6 9 29.62 1003 10 16 N/A
12:53 pm 12:53 Sunny 71 21.7 35 1.7 27 27 VRB 3 6 29.57 1002 10 16 N/A
1:53 pm 13:53 Sunny 75 23.9 28 -2.2 18 18 SW 9 15 29.54 1000 10 16 N/A
2:53 pm 14:53 Sunny 74 23.3 30 -1.1 20 20 VRB 6 9 29.51 999 10 16 N/A
3:53 pm 15:53 Sunny 78 25.6 29 -1.7 16 16 VRB 6 9 29.48 998 10 16 N/A
4:53 pm 16:53 Sunny 77 25 29 -1.7 17 17 NNW 9 15 29.46 998 10 16 N/A
5:53 pm 17:53 Sunny 72 22.2 31 -0.6 22 22 NW 21 33 29.47 998 10 16 N/A
6:53 pm 18:53 Sunny 65 18.3 31 -0.6 28 28 WNW 23 37 29.52 1000 10 16 N/A
7:53 pm 19:53 Cloudy 61 16.1 31 -0.6 32 32 W 10 17 29.57 1001 10 16 N/A
8:53 pm 20:53 Cloudy 58 14.4 32 undefined 38 38 W 15 24 29.61 1003 10 16 N/A
9:53 pm 21:53 Cloudy 57 13.9 33 0.6 41 41 W 17 28 29.62 1003 10 16 N/A
10:53 pm 22:53 Cloudy 53 11.7 34 1.1 48 48 WNW 15 24 29.63 1003 10 16 N/A
11:53 pm 23:53 Clear 48 8.9 32 undefined 54 54 WNW 18 30 29.64 1004 10 16 N/A

Powered by AerisWeather